Overview Statistics Trail Chart Weather Telemetry Raw packets
 

This is the latest recevied weather packets stored in our database for station/object AA7VG. If no packets are shown the sender has not sent any weather packets the latest 10 day(s).

<< 101 102 103 104 105 106 107 >>
Time Temp. Humidity Pressure Rain* Wind** Luminosity Snow
1787853162 26.67° C 33% 1018.7 hPa 0 mm - - -
1787852857 26.67° C 34% 1018.4 hPa 0 mm - - -
1787852556 26.67° C 34% 1018.4 hPa 0 mm - - -
1787852256 26.11° C 33% 1018.4 hPa 0 mm - - -
1787851956 25.56° C 35% 1018.7 hPa 0 mm - - -
1787851656 25.56° C 34% 1018.6 hPa 0 mm - - -
1787851051 24.44° C 36% 1018.4 hPa 0 mm - - -
1787850746 23.89° C 37% 1019.1 hPa 0 mm - - -
1787850441 23.89° C 38% 1018.8 hPa 0 mm - - -
1787850137 23.89° C 37% 1018.9 hPa 0 mm - - -
1787849836 23.33° C 38% 1019.1 hPa 0 mm - - -
1787849531 23.33° C 39% 1019.1 hPa 0 mm - - -
1787849230 23.33° C 38% 1019.4 hPa 0 mm - - -
1787848930 23.33° C 40% 1019.2 hPa 0 mm - - -
1787848624 22.78° C 40% 1019.3 hPa 0 mm - - -
1787848320 22.78° C 40% 1019.2 hPa 0 mm - - -
1787848020 22.78° C 39% 1019.2 hPa 0 mm - - -
1787847719 22.78° C 40% 1019.3 hPa 0 mm - - -
1787847415 22.78° C 41% 1019.4 hPa 0 mm - - -
1787847110 22.22° C 42% 1019.4 hPa 0 mm - - -
1787846806 22.22° C 43% 1019.5 hPa 0 mm - - -
1787846501 22.22° C 43% 1019.4 hPa 0 mm - - -
1787846196 22.22° C 43% 1019.4 hPa 0 mm - - -
1787845893 21.67° C 44% 1019.2 hPa 0 mm - - -
1787845592 22.22° C 42% 1019.2 hPa 0 mm - - -

* Rain latest hour (hover to see other rain measurements)
** Current wind speed in m/s (hover to see current wind gust speed)